Weather History for Ponca City, OK

Change the Weather History Date:

Saturday, October 22, 2011

  Actual Average Record
Temperature  
Mean Temperature 58 °F -  
Max Temperature 75 °F 73 °F 86 °F (1975)
Min Temperature 41 °F 52 °F 28 °F (1952)
Degree Days  
Heating Degree Days 7    
Growing Degree Days 8 (Base 50)    
Moisture  
Dew Point 50 °F    
Average Humidity 75    
Maximum Humidity 94    
Minimum Humidity 44    
Precipitation  
Precipitation 0.38 in - - ()
Sea Level Pressure  
Sea Level Pressure 30.02 in    
Wind  
Wind Speed 3 mph (East)    
Max Wind Speed 13 mph    
Max Gust Speed -    
Visibility 9 miles    
Events Rain , Thunderstorm    
Averages and records for this station are not official NWS values.
T = Trace of Precipitation, MM = Missing Value Source: NWS Daily Summary

Daily Weather History Graph

Daily Weather History Graph

Search for Another Location

Airport:

Trip Planner

Search our weather history database for the weather conditions in past years. The results will help you decide how hot, cold, wet, or windy it might be!

Date:

Astronomy

Oct. 22, 2011 Rise Set
Actual Time 7:42 AM CDT 6:43 PM CDT
Civil Twilight 7:15 AM CDT 7:09 PM CDT
Nautical Twilight 6:45 AM CDT 7:39 PM CDT
Astronomical Twilight 6:15 AM CDT 8:09 PM CDT
Moon 2:48 AM CDT (10/22) 3:55 PM CDT (10/22)
Length of Visible Light 11h 53m
Length of Day
11h 01m
Waning Crescent, 23% of the Moon is Illuminated
Oct 22
Waning Crescent
Oct 26
New
Nov 2
First Quarter
Nov 10
Full
Nov 18
Last Quarter

Hourly Weather History & Observations

Time (CDT) Temp. Windchill Dew Point Humidity Pressure Visibility Wind Dir Wind Speed Gust Speed Precip Events Conditions
12:53 AM 45.0 °F - 37.9 °F 76% 30.08 in 10.0 mi Calm Calm - N/A   Clear
1:53 AM 48.2 °F - 39.2 °F 71% 30.09 in 10.0 mi Calm Calm - N/A   Clear
2:53 AM 45.0 °F - 39.0 °F 80% 30.08 in 10.0 mi Calm Calm - N/A   Clear
3:53 AM 46.0 °F - 39.0 °F 76% 30.06 in 10.0 mi Calm Calm - N/A   Clear
4:53 AM 42.1 °F - 37.9 °F 85% 30.06 in 10.0 mi Calm Calm - N/A   Clear
5:53 AM 42.1 °F - 37.9 °F 85% 30.07 in 10.0 mi Calm Calm - N/A   Clear
6:53 AM 42.1 °F - 37.9 °F 85% 30.08 in 10.0 mi Calm Calm - N/A   Clear
7:53 AM 41.0 °F 38.0 °F 37.9 °F 89% 30.08 in 10.0 mi North 4.6 mph - N/A   Clear
8:53 AM 53.1 °F - 46.9 °F 80% 30.09 in 10.0 mi Calm Calm - N/A   Clear
9:53 AM 61.0 °F - 46.0 °F 58% 30.07 in 10.0 mi SE 9.2 mph - N/A   Clear
10:53 AM 66.0 °F - 46.0 °F 48% 30.06 in 10.0 mi SE 9.2 mph - N/A   Clear
11:53 AM 68.0 °F - 46.9 °F 47% 30.05 in 10.0 mi ESE 6.9 mph - N/A   Clear
12:53 PM 72.0 °F - 50.0 °F 46% 30.03 in 10.0 mi SE 9.2 mph - N/A   Clear
1:53 PM 73.9 °F - 52.0 °F 46% 30.00 in 10.0 mi ESE 12.7 mph - N/A   Clear
2:53 PM 75.0 °F - 52.0 °F 44% 29.98 in 10.0 mi ESE 10.4 mph - N/A   Clear
3:53 PM 73.9 °F - 51.1 °F 45% 29.96 in 10.0 mi East 10.4 mph - N/A   Clear
4:34 PM 73.4 °F - 51.8 °F 47% 29.96 in 10.0 mi East 9.2 mph - N/A Thunderstorm Clear
4:53 PM 71.1 °F - 53.1 °F 53% 29.96 in 10.0 mi ESE 8.1 mph - 0.00 in Rain , Thunderstorm Light Thunderstorms and Rain
5:37 PM 64.4 °F - 57.2 °F 77% 29.98 in 2.5 mi WNW 5.8 mph - 0.07 in Rain , Thunderstorm Light Thunderstorms and Rain
5:53 PM 63.0 °F - 57.9 °F 84% 29.97 in 7.0 mi NW 4.6 mph - 0.10 in Rain , Thunderstorm Light Thunderstorms and Rain
6:53 PM 61.0 °F - 57.9 °F 90% 29.96 in 4.0 mi NNE 6.9 mph - 0.13 in Rain , Thunderstorm Heavy Thunderstorms and Rain
7:12 PM 60.8 °F - 57.2 °F 88% 30.00 in 1.8 mi WNW 5.8 mph - 0.00 in Rain , Thunderstorm Light Thunderstorms and Rain
7:33 PM 60.8 °F - 59.0 °F 94% 29.99 in 3.0 mi Calm Calm - 0.08 in Rain , Thunderstorm Thunderstorms and Rain
7:53 PM 61.0 °F - 59.0 °F 93% 29.98 in 4.0 mi Variable 5.8 mph - 0.13 in Rain , Thunderstorm Heavy Thunderstorms and Rain
8:17 PM 60.8 °F - 57.2 °F 88% 29.96 in 8.0 mi ENE 5.8 mph - 0.00 in   Mostly Cloudy
8:53 PM 61.0 °F - 55.9 °F 83% 29.94 in 10.0 mi ENE 5.8 mph - 0.01 in   Clear
9:53 PM 57.9 °F - 55.9 °F 93% 29.97 in 9.0 mi Calm Calm - N/A   Clear
10:45 PM 57.2 °F - 53.6 °F 88% 30.01 in 10.0 mi Variable 3.5 mph - 0.01 in   Mostly Cloudy
10:53 PM 57.0 °F - 54.0 °F 89% 30.00 in 10.0 mi SW 3.5 mph - 0.01 in   Mostly Cloudy
11:04 PM 55.4 °F - 53.6 °F 94% 30.01 in 10.0 mi Calm Calm - N/A   Mostly Cloudy
11:11 PM 55.4 °F - 53.6 °F 94% 30.01 in 9.0 mi Calm Calm - N/A   Partly Cloudy
11:53 PM 55.0 °F - 53.1 °F 93% 30.00 in 10.0 mi Calm Calm - N/A   Clear